星链-5676 (STARLINK-5676 )

导读 | 星芒AI

STARLINK-5676 是 SpaceX Starlink 项目中的一颗低轨通信卫星,属于第 17 批组网发射的卫星之一。该卫星于 2022 年 12 月发射,运行在约 550 公里的轨道高度,旨在为全球用户提供高速互联网服务。Starlink 卫星采用先进推进系统和激光通信技术,具备自主避障能力,以减少与空间碎片的碰撞风险。该项目致力于构建覆盖全球的卫星互联网网络,尤其服务于偏远地区。STARLINK-5676 在提升全球网络接入能力方面发挥着重要作用。

基本信息
目录编号:
55464
目录名称:
STARLINK-5676
国际标识:
2023-015R
轨道中心:
EARTH
卫星名称:
星链-5676
卫星全名:
星链-5676 (STARLINK-5676 )
卫星状态:
在轨 (已飞行1053 天)
发射日期:
2023-02-02 UTC
国别 :
美国 (US)
星等 :
--
轨道信息
数据来源 国际轨道数据
星历时间: 2025-12-21T04:00:42+0800
18小时前
查看轨道信息
半长轴: 6937.219km
偏心率: 0.0001243
轨道倾角: 43.005°
近地点辐角 269.867°
升交点赤经 34.333°
平近点角 90.203°
近地点: 558.219km
远地点: 559.945km
周期: 95.838分钟
每日圈数: 15.025353
详细信息
固有亮度:
5
最大亮度:
2.5
卫星平台:
Starlink v1.5
覆盖范围:
全球
运营商:
太空探索技术公司
运营商所在国:
美国
制造商(研发单位):
太空探索技术公司
制造商所在国:
美国
使用方式:
暂无
卫星简介
星链(Starlink)计划是由太空探索技术公司(SpaceX)提出的一个巨型低轨卫星互联网星座项目,计划在2019年至2024年间在太空搭建由约1.2万颗卫星组成的“星链”网络,其中1584颗将部署在地球上空550千米处的近地轨道,并从2020年开始工作。该卫星仍在工作。
2D轨道图
3D轨道图
轨道高度分析图
轨道倾角分析图
轨道综合分析图
查看轨道综合分析图